Regional Weather Roundup
Issued by NWS Wakefield, VA

Home | Current Version | Previous Version | Text Only | Print | Product List | Glossary Off
Versions: 1 2 3 4 5 6 7 8 9 10 11 12 13 14 15 16 17 18 19 20 21 22 23 24 25 26 27 28 29 30 31 32 33 34 35 36 37 38 39 40 41 42 43 44 45 46 47 48 49 50

000
ASUS41 KAKQ 020010
RWRAKQ

REGIONAL WEATHER ROUNDUP
NATIONAL WEATHER SERVICE WAKEFIELD VA
700 PM EST SUN MAR 01 2015

Note: "fair" indicates few or no clouds below 12,000 feet with no
significant weather and/or obstructions to visibility. * = Denotes
station may not report precipitation (e.g., rain,snow,etc.),
thunder or fog.

VAZ042-051-052>054-056-020100-
NORTHERN VIRGINIA

CITY           SKY/WX    TMP DP  RH WIND       PRES   REMARKS
WASH NATIONAL  LGT RAIN  34  28  80 S6        30.32F
DULLES         FRZ RAIN  31  28  89 SW5       30.30F
FORT BELVOIR   CLOUDY    32  30  93 CALM      30.31F
QUANTICO       MIX PCPN  32  29  88 S8        30.33F
FREDERICKSBRG* MIX PCPN  33  33 100 S3        30.30F
STAFFORD*      MIX PCPN  31  32 100 S3        30.34F
WARRENTON      CLOUDY    33  33 100 CALM      30.30S
CULPEPER*      CLOUDY    32  30  93 CALM      30.31S
MANASSAS*      CLOUDY    32  32 100 CALM      30.30F
LEESBURG*      MIX PCPN  32  32 100 SW3       30.30F
WINCHESTER     CLOUDY    32  28  86 SE3       30.25S
FRONT ROYAL*   FAIR      32  28  86 CALM      30.24S
LURAY*         CLOUDY    36  34  93 CALM      30.23S
$$

VAZ048-049-060>072-079>083-020100-
CENTRAL AND SOUTH CENTRAL VIRGINIA

CITY           SKY/WX    TMP DP  RH WIND       PRES   REMARKS
RICHMOND       CLOUDY    32  30  92 SW5       30.35S FOG
CHESTERFIELD*  CLOUDY    34  21  60 CALM      30.36S
PETERSBURG*    CLOUDY    33  33  99 CALM      30.36F FOG
HANOVER        CLOUDY    32  31  96 CALM      30.35F FOG
TAPPAHANNOCK*  CLOUDY    33  31  92 CALM      30.36R FOG
QUINTON*       CLOUDY    32  31  98 CALM      30.36R
CHARLOTTSVILLE CLOUDY    31  29  92 SW8       30.28F FOG
GORDONSVILLE*  CLOUDY    31  30  96 SW6       30.30S
ORANGE*        CLOUDY    32  32 100 CALM      30.31R
LOUISA*        MIX PCPN  32  30  93 S7        30.27F
BUMPASS*       CLOUDY    32  31  97 S3        30.31F
FARMVILLE*     CLOUDY    34  34 100 CALM      30.33S FOG
CREWE*         CLOUDY    32  32  98 CALM      30.33F
FORT PICKETT*  CLOUDY    32  31  98 S3        30.34F
CHASE CITY*    CLOUDY    34  34 100 CALM      30.36R
CLARKSVILLE*   CLOUDY    32  32 100 CALM      30.37R
SOUTH HILL*    CLOUDY    32  31  97 CALM      30.40F
LAWRENCEVILLE* CLOUDY    32  32 100 CALM      30.35F
EMPORIA*       CLOUDY    32  32 100 CALM      30.38F
$$

VAZ088>098-020100-
SOUTHEAST VIRGINIA

CITY           SKY/WX    TMP DP  RH WIND       PRES   REMARKS
NORFOLK        MIX PCPN  31  29  92 VRB5      30.37S
VIRGINIA BEACH LGT RAIN  33  29  85 N5        30.36R FOG
NORFOLK NAVAL  DRIZZLE   34  30  85 N3        30.38F
WEST POINT*    CLOUDY    34  32  92 SE5       30.36F
SALUDA*        CLOUDY    31  30  96 CALM      30.35F
NEWPORT NEWS   CLOUDY    34  30  85 CALM      30.37F
LANGLEY AFB    CLOUDY    32  31  94 CALM      30.37S
FORT EUSTIS    CLOUDY    32  32 100 S2        30.34F
WILLIAMSBURG*  CLOUDY    36  34  93 CALM      30.36F
HR EXEC AP*    CLOUDY    32  28  86 CALM      30.38F
FRANKLIN*      CLOUDY    32  31  96 CALM      30.37F
WAKEFIELD      CLOUDY    33  30  88 CALM      30.36F
$$

VAZ020-022-025-037-045-020100-
WEST CENTRAL AND SOUTHWEST VIRGINIA

CITY           SKY/WX    TMP DP  RH WIND       PRES   REMARKS
STAUNTON*      MOCLDY    37  32  81 CALM      30.25S
WAYNESBORO*    MOCLDY    37  32  82 W6        30.23R
HOT SPRINGS VA SNOW      39  39 100 W17       30.18S VSB<1/4
LYNCHBURG      MIX PCPN  31  30  96 S7        30.31F FOG
DANVILLE       CLOUDY    34  32  92 SW3       30.36F FOG
SOUTH BOSTON*  CLOUDY    32  31  97 S5        30.36F VSB 1
MARTINSVILLE   CLOUDY    37  37 100 CALM      30.34F
ROANOKE        MOCLDY    36  28  73 CALM      30.30F
BLACKSBURG     MOCLDY    37  29  73 CALM      30.29S
DUBLIN*        CLOUDY    40  33  75 NW3       30.27F
MARION*        CLOUDY    45  40  83 W9        30.29S
HILLSVILLE*    CLOUDY    44  40  85 SE3       30.26F
RICHLANDS*     CLOUDY    43  41  93 W15G21    30.28S FOG
WISE*          FOG       41  41 100 SW10      30.28S VSB 1/4
ABINGDON*      DRIZZLE   46  42  87 W5        30.30S
$$

MDZ021>025-VAZ099-100-020100-
SOUTHERN MARYLAND AND THE DELMARVA PENINSULA

CITY           SKY/WX    TMP DP  RH WIND       PRES   REMARKS
PATUXENT RIVER MIX PCPN  30  28  92 S6        30.33F FOG
BAY BRIDGE APT LGT RAIN  30  30 100 CALM      30.33F
LEONARDTOWN    CLOUDY    32  30  93 CALM      30.34F
DOVER          FRZ RAIN  31  31 100 CALM      30.32F
GEORGETOWN     FRZ RAIN  32  31  96 S9        30.32F FOG
EASTON         CLOUDY    32  32 100 CALM      30.34F FOG
CAMBRIDGE      NOT AVBL
SALISBURY      LGT RAIN  34  31  88 CALM      30.34F FOG
OCEAN CITY     MIX PCPN  32  31  96 N3        30.35F FOG
WALLOPS ISLAND MIX PCPN  32  31  96 NE6       30.33F FOG
ACCOMACK*      MIX PCPN  32  32 100 CALM      30.34F
$$

NCZ012>017-030>032-020100-
NORTH CENTRAL AND EASTERN NORTH CAROLINA

CITY           SKY/WX    TMP DP  RH WIND       PRES   REMARKS
ROANOKE RAPIDS CLOUDY    32  32 100 CALM      30.37S
RALEIGH        LGT RAIN  34  32  93 SW3       30.38R FOG
ELIZABETH CITY LGT RAIN  37  36  96 NW10      30.36S VSB 1
AHOSKIE*       CLOUDY    32  31  97 CALM      30.36F
EDENTON*       DRIZZLE   36  35  96 NW5       30.38R
CURRITUCK*     LGT RAIN  36  35  96 NW6       30.37R
KILL DEVIL HLS RAIN      46  46 100 W5        30.31R
MANTEO         DRIZZLE   45  43  93 CALM      30.32R
CAPE HATTERAS  CLOUDY    52  50  93 SW8       30.33S
TARBORO*       LGT RAIN  34  33  95 CALM      30.38F
GOLDSBORO      CLOUDY    36  36 100 CALM      30.36F
WASHINGTON     DRIZZLE   36  35  95 NW3       30.38F
GREENVILLE     CLOUDY    36  34  93 NW3       30.39S
NEW BERN       CLOUDY    44  41  89 NW9       30.38R
WILMINGTON     LGT RAIN  47  45  93 N9        30.36S FOG
$$

VAZ048-020100-
ELSEWHERE

CITY           SKY/WX    TMP DP  RH WIND       PRES   REMARKS
HARRISBURG PA  FRZ DRZL  28  26  92 CALM      30.28F FOG
BALTIMORE      FRZ RAIN  31  30  96 CALM      30.30F
ANNAPOLIS      FRZ RAIN  30  28  92 MISG      30.32F
ANDREWS AFB    MIX PCPN  32  32 100 CALM      30.29F
PHILADELPHIA   FRZ RAIN  31  28  89 SW5       30.32F
HENDERSON NC   CLOUDY    32  31  97 CALM      30.36R
GREENSBORO     CLOUDY    36  34  92 W3        30.34F FOG
ROCKY MOUNT    LGT RAIN  35  34  96 CALM      30.36F FOG
$$

VAZ100-020100-
MARINE

STATION/POSITION TIME  TEMP    WIND        PRES    WAVE   SWELL
                       AIR SEA DIR/SP/G            HT/PER HT/PER
                 (UTC) (F)     (DEG/KT/KT) (MB)    (FT/S) (FT/S)
BRANDYWINE LGT   2300   29 30     CALM     1027.0F
CAPE MAY NJ      0000   31 33     CALM     1026.5S
LEWES DE         0000   32 30     CALM     1026.8F
15NM E FENWICK I 0000   32 34              1027.5F   2/10
OCEAN-CITY-INLET 0000   32 32     CALM     1027.3S
WACHAPREAGUE VA  0000   32 33   CALM  /  3 1027.3R
THOMAS POINT MD  0000   29 31     CALM     1027.7F
COVE POINT MD    0000   28        CALM     1026.9F
SOLOMONS ISLAND  0000      32                N/A
BISHOPS HEAD MD  0000   30 31     CALM     1027.0F
CAMBRIDGE MD     0000   31 32     CALM     1026.9F
LEWISETTA VA     0000   31 33              1026.8F
RAPPAHANNOCK LGT 0000           CALM  /  1 1028.6R
STINGRAY PT      0000   30        CALM       N/A
YORK RVR RNG VA  0000   31     300/  2/  2 1027.9F
YORKTOWN VA      0000   32 33  290/  2/  3 1028.2F
DOMINION TERM VA 0000   32     310/  5/  6 1028.3F
KIPTOPEKE VA     0000      37  330/ 11/ 17   N/A
CHES BAY BRIDGE  0000   31 33  290/  4/  4 1028.7R
CAPE HENRY VA    0000   31     300/  5/  6 1027.3R
CHESAPEAKE LGHT  2300   33      10/ 12/ 12 1028.1F
WILLOUBY STN VA  0000   31     350/  3/  3 1028.6F
S CRANEY ISL VA  0000          360/  3/  4 1028.4F
CAPE HENRY BUOY  0000      35                N/A     3/ 5
1ST LANDING BUOY 0000   31                 1028.2R
OFFSHORE WE BUOY 0000      37                N/A     4/ 6   3/ 6
64NM E OF VA BCH 0000   60 61  180/ 21/ 25 1025.6F   5/ 5   2/ 8
DUCK PIER NC     0000   34 34   10/  8/ 10 1025.8R
44100 DUCK FRF   0000      36                N/A     4/ 5
44056 DUCK FRF   0000                        N/A     3/ 6
OREGON INLET NC  0000   49 40  160/ 11/ 14 1026.2R
HATTERAS NC      0000   53 40  190/  4/  8 1027.3S
CAPE LOOKOUT NC  2300   56     190/ 10/ 11 1027.1F
$$



USA.gov is the U.S. government's official web portal to all federal, state and local government web resources and services.